This is the latest recevied weather packets stored in our database for station/object XE2G-31. If no packets are shown the sender has not sent any weather packets the latest 10 day(s).
| Time | Temp. | Humidity | Pressure | Rain* | Wind** | Luminosity | Snow |
|---|---|---|---|---|---|---|---|
| 1777694283 | 20.56° C | 85% | 869 hPa | - | - | - | - |
| 1777693336 | 20.56° C | 84% | 869 hPa | - | - | - | - |
| 1777692389 | 20.56° C | 85% | 869 hPa | - | - | - | - |
| 1777691442 | 21.11° C | 85% | 869 hPa | - | - | - | - |
| 1777690495 | 21.11° C | 84% | 869 hPa | - | - | - | - |
| 1777689548 | 21.11° C | 84% | 869 hPa | - | - | - | - |
| 1777688602 | 21.11° C | 84% | 868 hPa | - | - | - | - |
| 1777687655 | 21.11° C | 84% | 868 hPa | - | - | - | - |
| 1777686708 | 21.67° C | 83% | 868 hPa | - | - | - | - |
| 1777685761 | 22.22° C | 82% | 867 hPa | - | - | - | - |
| 1777684814 | 22.22° C | 81% | 867 hPa | - | - | - | - |
| 1777683867 | 22.22° C | 79% | 867 hPa | - | - | - | - |
| 1777682921 | 22.22° C | 77% | 867 hPa | - | - | - | - |
| 1777681974 | 22.22° C | 77% | 866 hPa | - | - | - | - |
| 1777681027 | 22.78° C | 76% | 866 hPa | - | - | - | - |
| 1777680080 | 22.78° C | 76% | 866 hPa | - | - | - | - |
| 1777679134 | 23.33° C | 75% | 866 hPa | - | - | - | - |
| 1777678186 | 23.89° C | 73% | 865 hPa | - | - | - | - |
| 1777677240 | 24.44° C | 72% | 865 hPa | - | - | - | - |
| 1777676293 | 25° C | 68% | 865 hPa | - | - | - | - |
| 1777675346 | 25° C | 67% | 865 hPa | - | - | - | - |
| 1777674400 | 25° C | 69% | 865 hPa | - | - | - | - |
| 1777673452 | 25° C | 69% | 865 hPa | - | - | - | - |
| 1777672505 | 24.44° C | 69% | 865 hPa | - | - | - | - |
| 1777671559 | 25.56° C | 68% | 865 hPa | - | - | - | - |
* Rain since midnight (hover to see other rain measurements)
** Current wind speed in m/s (hover to see current wind gust speed)